Regional Weather Roundup
Issued by NWS

Home | Current Version | Previous Version | Graphics & Text | Print | Product List | Glossary On
Versions: 1 2 3 4 5 6 7 8 9 10 11 12 13 14 15 16 17 18 19 20 21 22 23 24 25 26 27 28 29 30 31 32 33 34 35 36 37 38 39 40 41 42 43 44 45 46 47 48 49 50
397
ASUS43 KIND 261209
RWRIN

WEATHER ROUNDUP FOR INDIANA
NATIONAL WEATHER SERVICE INDIANAPOLIS IN
800 AM EDT THU MAY 26 2016

NOTE: "FAIR" INDICATES FEW OR NO CLOUDS BELOW 12,000 FEET WITH NO
SIGNIFICANT WEATHER AND/OR OBSTRUCTIONS TO VISIBILITY.

* - STATION DOES NOT REPORT WEATHER SUCH AS PRECIPITATION OR FOG.

+ - STATION NOT QUALITY CONTROLLED BY THE NATIONAL WEATHER SERVICE.
    USE DATA WITH CAUTION...ESPECIALLY DEWPOINT AND RELATIVE
    HUMIDITY OBSERVATIONS.

INZ001>003-010>013-019-020-261300-
NORTHWEST INDIANA

CITY           SKY/WX    TMP DP  RH WIND       PRES   REMARKS
GARY /AIRPORT/ PTSUNNY   70  70 100 S10       29.95R
KNOX *+        PTSUNNY   70  61  73 S12       29.98R
LA PORTE +     CLOUDY    70  70 100 S8        29.98S
6HR MIN TEMP:  67; 6HR MAX TEMP:  70;

MICHIGAN CITY+ CLOUDY    68  68 100 S8        29.97S
MONTICELLO +   SUNNY     70  64  80 S8        29.98S
6HR MIN TEMP:  67; 6HR MAX TEMP:  71;

RENSSELAER +   CLOUDY    70  66  88 S12       29.97S
VALPARAISO     CLOUDY    68  65  90 S8        29.98R FOG
6HR MIN TEMP:  65; 6HR MAX TEMP:  70;


$$

LMZ046-743>745-261300-
SOUTHERN LAKE MICHIGAN

STATION/POSITION TIME  TEMP    WIND        PRES    WAVE
                       AIR SEA DIR/SP/G            HT
                 (UTC) (F)     (DEG/KT/KT) (MB)    (FT)
BURNS HARBOR     1100   67     190/ 10/ 18 1014.2R
MICHIGAN CITY    1100   67     150/ 12/ 14   N/A
5NW MICH CITY    1200   64 58  200/  8/ 10   N/A     1

$$

INZ004-005-014>016-021>024-261300-
NORTH CENTRAL INDIANA

CITY           SKY/WX    TMP DP  RH WIND       PRES   REMARKS
ELKHART        PTSUNNY   70  68  94 S8        29.99R
GOSHEN         CLOUDY    70  64  81 SW9       29.99R
6HR MIN TEMP:  66; 6HR MAX TEMP:  71;

LOGANSPORT +   MOSUNNY   68  63  83 S9        30.01R
ROCHESTER +    PTSUNNY   72  66  83 S7        30.00S
SOUTH BEND     CLOUDY    69  65  86 S12       29.98R
6HR MIN TEMP:  65; 6HR MAX TEMP:  69;

WARSAW +       CLOUDY    68  63  83 SW5       30.00R

$$

INZ006>009-017-018-025>027-261300-
NORTHEAST INDIANA

CITY           SKY/WX    TMP DP  RH WIND       PRES   REMARKS
ANGOLA *+      PTSUNNY   70  64  83 SW7       30.00R
AUBURN +       MOSUNNY   70  63  78 SW5       30.01R
FORT WAYNE     MOSUNNY   69  63  81 SW10      30.02R
6HR MIN TEMP:  65; 6HR MAX TEMP:  70;

HUNTINGTON +   MOSUNNY   68  64  85 S7        30.01R

$$

INZ028-029-035-036-043>045-051>053-261300-
WEST CENTRAL INDIANA

CITY           SKY/WX    TMP DP  RH WIND       PRES   REMARKS
CRAWFORDSVL +  CLOUDY    66  66 100 S8        30.01S
6HR MIN TEMP:  65; 6HR MAX TEMP:  67;

GREENCASTLE +  CLOUDY    66  66 100 S7        30.03S
LAFAYETTE      CLOUDY    69  65  86 S5        29.98S
6HR MIN TEMP:  67; 6HR MAX TEMP:  70;

TERRE HAUTE    PTSUNNY   69  64  84 S8        30.00F
6HR MIN TEMP:  67; 6HR MAX TEMP:  70;


$$

INZ030>032-037>040-046>048-054>057-064-065-261300-
CENTRAL INDIANA

CITY           SKY/WX    TMP DP  RH WIND       PRES   REMARKS
CP ATTERBURY + CLOUDY    66  63  88 S3        30.06R
COLUMBUS       CLOUDY    66  64  94 S7        30.06R
FRANKFORT +      N/A     69  66  90 CALM      30.03R
6HR MIN TEMP:  66; 6HR MAX TEMP:  69;

GREENWOOD *+   CLOUDY    66  63  88 S7        30.05R
INDIANAPOLIS   PTSUNNY   69  64  84 S9        30.02R
6HR MIN TEMP:  66; 6HR MAX TEMP:  70;

-EAGLE CREEK   CLOUDY    69  64  84 VRB5      30.02S
6HR MIN TEMP:  68; 6HR MAX TEMP:  70;

KOKOMO *+      PTSUNNY   70  61  73 S10       30.02R
6HR MIN TEMP:  68; 6HR MAX TEMP:  70;

MARION +       CLOUDY    68  63  84 SW10      30.03R
SHELBYVILLE    CLOUDY    69  63  81 S10       30.05R
6HR MIN TEMP:  68; 6HR MAX TEMP:  70;

ZIONSVILLE +   CLOUDY    67  64  89 S7        30.04R
6HR MIN TEMP:  65; 6HR MAX TEMP:  68;


$$

INZ033-034-041-042-049-050-058-059-261300-
EAST CENTRAL INDIANA

CITY           SKY/WX    TMP DP  RH WIND       PRES   REMARKS
MUNCIE         SUNNY     69  62  78 S9        30.03R
6HR MIN TEMP:  68; 6HR MAX TEMP:  72; 6HR PCP: TRACE;


$$

INZ060-061-067>069-081>083-085>088-261300-
SOUTHWEST INDIANA

CITY           SKY/WX    TMP DP  RH WIND       PRES   REMARKS
EVANSVILLE     SUNNY     66  62  87 S6        30.03S
6HR MIN TEMP:  64; 6HR MAX TEMP:  67;

HUNTINGBURG *+ MOSUNNY   66  61  82 S7        30.05R
6HR MIN TEMP:  64; 6HR MAX TEMP:  66;

WASHINGTON +   MOSUNNY   67  67  98 S5        30.03S
6HR MIN TEMP:  65; 6HR MAX TEMP:  68;


$$

INZ062-063-066-070>080-084-089>092-261300-
SOUTH CENTRAL AND SOUTHEAST INDIANA

CITY           SKY/WX    TMP DP  RH WIND       PRES   REMARKS
BLOOMINGTON    MOSUNNY   66  63  90 S5        30.04R
6HR MIN TEMP:  65; 6HR MAX TEMP:  69;

MADISON *+     PTSUNNY   66  63  88 S6        30.10R
NORTH VERNON + MOSUNNY  N/A N/A N/A CALM      30.08R
SEYMOUR +      PTSUNNY   68  63  83 CALM      30.06R

$$





USA.gov is the U.S. government's official web portal to all federal, state and local government web resources and services.